EW9427 Weather Reports


Display with metric or nautical units.
time (UTC)temp
F
wind
direction
speed
MPH
gust
MPH
rain 1hr
in
rain 24hr
in
rain mn
in
humidity
%
barometer
mb
20260508050049 51 360 4.0 10.0 0.00 0.00 0.00 56 1013.1
20260508044557 51 327 3.0 5.0 0.00 0.00 0.00 59 1013.0
20260508043046 52 281 1.0 4.0 0.00 0.00 0.00 57 1013.1
20260508041553 53 281 1.0 4.0 0.00 0.00 0.00 56 1013.0
20260508040052 55 281 3.0 5.0 0.00 0.00 0.00 55 1013.0
20260508034544 56 281 2.0 6.0 0.00 0.00 0.00 53 1013.0
20260508033043 57 271 2.0 6.0 0.00 0.00 0.00 51 1013.1
20260508031555 58 250 2.0 7.0 0.00 0.00 0.00 49 1013.0
20260508030054 58 275 6.0 9.0 0.00 0.00 0.00 49 1012.8
20260508024542 57 254 3.0 7.0 0.00 0.00 0.00 51 1012.7
20260508023045 59 255 1.0 5.0 0.00 0.00 0.00 51 1012.4
20260508021541 60 255 1.0 3.0 0.00 0.00 0.00 48 1012.3
20260508020042 61 255 1.0 3.0 0.00 0.00 0.00 48 1012.1
20260508014540 61 254 2.0 7.0 0.00 0.00 0.00 47 1012.0
20260508013038 63 242 4.0 8.0 0.00 0.00 0.00 46 1011.8
20260508011538 64 252 7.0 14.0 0.00 0.00 0.00 44 1011.9
20260508010042 64 237 6.0 14.0 0.00 0.00 0.00 48 1011.9
20260508004539 64 239 9.0 15.0 0.00 0.00 0.00 42 1012.0
20260508003036 66 275 6.0 15.0 0.00 0.00 0.00 40 1011.8
20260508001540 66 254 8.0 14.0 0.00 0.00 0.00 41 1011.8
20260508000034 66 264 6.0 16.0 0.00 0.00 0.00 33 1011.9
20260507234538 68 17 11.0 18.0 0.00 0.00 0.00 32 1011.5
20260507233032 68 324 7.0 14.0 0.00 0.00 0.00 31 1011.5
20260507231536 69 311 8.0 17.0 0.00 0.00 0.00 31 1011.5
20260507230035 68 283 5.0 15.0 0.00 0.00 0.00 30 1011.5
20260507224548 68 346 9.0 14.0 0.00 0.00 0.00 31 1011.6
20260507223030 67 311 11.0 19.0 0.00 0.00 0.00 31 1011.7
20260507221536 68 294 7.0 13.0 0.00 0.00 0.00 31 1011.8
20260507220033 68 317 8.0 18.0 0.00 0.00 0.00 31 1011.8
20260507214534 69 321 11.0 17.0 0.00 0.00 0.00 31 1011.9
20260507213034 69 324 10.0 19.0 0.00 0.00 0.00 30 1012.0
20260507211527 68 314 11.0 18.0 0.00 0.00 0.00 30 1012.2
20260507210046 68 283 12.0 29.0 0.00 0.00 0.00 31 1012.2
20260507204525 69 12 10.0 19.0 0.00 0.00 0.00 30 1012.3
20260507203025 67 310 11.0 17.0 0.00 0.00 0.00 32 1012.4
20260507201522 67 301 10.0 17.0 0.00 0.00 0.00 33 1012.4
20260507200034 66 292 11.0 17.0 0.00 0.00 0.00 33 1012.4
20260507194521 65 327 7.0 15.0 0.00 0.00 0.00 34 1012.3
20260507193026 68 344 9.0 16.0 0.00 0.00 0.00 32 1012.2
20260507191525 65 315 8.0 16.0 0.00 0.00 0.00 36 1012.2
20260507190029 65 272 7.0 11.0 0.00 0.00 0.00 37 1012.2
20260507184517 64 295 9.0 17.0 0.00 0.00 0.00 37 1012.4
20260507183034 65 338 9.0 15.0 0.00 0.00 0.00 36 1012.4
20260507181516 67 323 9.0 17.0 0.00 0.00 0.00 35 1012.4
20260507180014 66 319 10.0 18.0 0.00 0.00 0.00 36 1012.5
20260507174515 66 355 11.0 19.0 0.00 0.00 0.00 37 1012.7
20260507173017 66 355 11.0 19.0 0.00 0.00 0.00 37 1012.7
20260507171508 65 321 10.0 18.0 0.00 0.00 0.00 38 1012.8
20260507170007 66 355 12.0 23.0 0.00 0.00 0.00 37 1012.8
20260507164504 65 340 13.0 20.0 0.00 0.00 0.00 37 1012.8
20260507163004 65 318 9.0 19.0 0.00 0.00 0.00 39 1012.7
20260507161501 64 346 9.0 19.0 0.00 0.00 0.00 39 1012.7
20260507160117 63 317 8.0 17.0 0.00 0.00 0.00 39 1012.8
20260507154555 62 263 6.0 11.0 0.00 0.00 0.00 42 1012.9
20260507153052 61 273 4.0 10.0 0.00 0.00 0.00 42 1012.8
20260507151549 60 284 3.0 8.0 0.00 0.00 0.00 44 1012.8
20260507150044 57 307 1.0 3.0 0.00 0.00 0.00 49 1012.9
20260507144550 54 307 0.0 1.0 0.00 0.00 0.00 53 1012.9
20260507143039 53 307 0.0 4.0 0.00 0.00 0.00 53 1012.9
20260507141540 51 311 3.0 5.0 0.00 0.00 0.00 55 1013.0
20260507140035 50 302 2.0 3.0 0.00 0.00 0.00 57 1012.9
20260507134531 48 282 2.0 5.0 0.00 0.00 0.00 59 1012.7
20260507133028 47 323 3.0 4.0 0.00 0.00 0.00 60 1012.6
20260507131529 45 288 1.0 5.0 0.00 0.00 0.00 61 1012.6
20260507130031 45 288 1.0 3.0 0.00 0.00 0.00 60 1012.5
20260507124522 45 288 3.0 8.0 0.00 0.00 0.00 59 1012.4
20260507123026 43 322 2.0 3.0 0.00 0.00 0.00 60 1012.2
20260507121515 43 329 3.0 8.0 0.00 0.00 0.00 61 1012.0
20260507120014 42 313 1.0 4.0 0.00 0.00 0.00 59 1012.0
20260507114511 41 314 1.0 4.0 0.00 0.00 0.00 56 1011.8
20260507113009 41 314 0.0 3.0 0.00 0.00 0.00 55 1011.8
20260507111510 43 314 2.0 3.0 0.00 0.00 0.00 53 1011.7
20260507110008 43 314 1.0 3.0 0.00 0.00 0.00 56 1011.7
20260507104508 43 314 2.0 6.0 0.00 0.00 0.00 55 1011.4
20260507103006 44 292 2.0 10.0 0.00 0.00 0.00 55 1011.2
20260507101508 45 360 4.0 13.0 0.00 0.00 0.00 50 1011.2
20260507100003 43 313 2.0 7.0 0.00 0.00 0.00 54 1011.0
20260507094502 43 322 5.0 12.0 0.00 0.00 0.00 56 1011.1
20260507093102 43 236 3.0 5.0 0.00 0.00 0.00 54 1011.0
20260507091558 44 5 5.0 9.0 0.00 0.00 0.00 51 1010.8
20260507090112 42 338 6.0 9.0 0.00 0.00 0.00 57 1010.9
20260507084553 41 282 2.0 5.0 0.00 0.00 0.00 60 1010.5
20260507083053 41 291 3.0 5.0 0.00 0.00 0.00 59 1010.4
20260507081548 42 282 5.0 7.0 0.00 0.00 0.00 55 1010.3
20260507080048 44 317 3.0 6.0 0.00 0.00 0.00 54 1010.5
20260507074553 42 355 3.0 8.0 0.00 0.00 0.00 56 1010.3
20260507073040 44 5 3.0 4.0 0.00 0.00 0.00 52 1010.2
20260507071536 46 39 5.0 6.0 0.00 0.00 0.00 49 1010.1
20260507070034 47 355 3.0 6.0 0.00 0.00 0.00 49 1010.1
20260507064529 49 46 3.0 5.0 0.00 0.00 0.00 46 1010.0
20260507063024 50 24 4.0 11.0 0.00 0.00 0.00 44 1009.9
20260507061519 53 64 10.0 19.0 0.00 0.00 0.00 39 1009.8
20260507060014 54 53 13.0 18.0 0.00 0.00 0.00 36 1009.6
20260507054513 56 342 12.0 19.0 0.00 0.00 0.00 36 1010.2
20260507053013 58 62 10.0 16.0 0.00 0.00 0.00 31 1009.0
20260507051513 58 64 7.0 14.0 0.00 0.00 0.00 31 1008.9